Key West, FL

12:03 AM EST on February 07, 2016 (GMT -0500)
Key West International

Weather History for KEYW - December, 2014

Change the Weather History Date:

Tuesday, December 16, 2014

  Actual Average Record
Temperature  
Mean Temperature 70 °F 71 °F  
Max Temperature 75 °F 76 °F 85 °F (1947)
Min Temperature 64 °F 67 °F 51 °F (2010)
Degree Days  
Heating Degree Days 0 0  
Month to date heating degree days 5 0  
Since 1 July heating degree days 6 1  
Cooling Degree Days 5 7  
Month to date cooling degree days 100 124  
Year to date cooling degree days 4943 4657  
Growing Degree Days 20 (Base 50)    
Moisture  
Dew Point 60 °F    
Average Humidity 73    
Maximum Humidity 93    
Minimum Humidity 53    
Precipitation  
Precipitation 0.00 in 0.07 in 2.61 in (1964)
Month to date precipitation 0.01 1.25  
Year to date precipitation 34.38 38.86  
Snow  
Snow 0.00 in - - ()
Month to date snowfall 0.0  
Since 1 July snowfall 0.0  
Snow Depth 0.00 in    
Sea Level Pressure  
Sea Level Pressure 30.17 in    
Wind  
Wind Speed 8 mph (NNE)    
Max Wind Speed 15 mph    
Max Gust Speed 19 mph    
Visibility 10 miles    
Events      
T = Trace of Precipitation, MM = Missing Value Source: NWS Daily Summary

Daily Weather History Graph

Daily Weather History Graph

Search for Another Location

Airport or City:

Trip Planner

Search our weather history database for the weather conditions in past years. The results will help you decide how hot, cold, wet, or windy it might be!

Date:

Astronomy

Dec. 16, 2014 Rise Set
Actual Time 7:04 AM EST 5:41 PM EST
Civil Twilight 6:39 AM EST 6:06 PM EST
Nautical Twilight 6:10 AM EST 6:34 PM EST
Astronomical Twilight 5:42 AM EST 7:02 PM EST
Moon 1:47 AM EST (12/16) 1:44 PM EST (12/16)
Length of Visible Light 11h 27m
Length of Day
10h 37m
Waning Crescent, 30% of the Moon is Illuminated
Dec 16
Waning Crescent
Dec 21
New
Dec 28
First Quarter
Jan 4
Full
Jan 13
Last Quarter

Hourly Weather History & Observations

Time (EST) Temp. Dew Point Humidity Pressure Visibility Wind Dir Wind Speed Gust Speed Precip Events Conditions
12:53 AM 66.0 °F 61.0 °F 84% 30.13 in 10.0 mi NNE 6.9 mph - N/A   Clear
1:53 AM 66.0 °F 61.0 °F 84% 30.12 in 10.0 mi NNE 5.8 mph - N/A   Clear
2:53 AM 64.9 °F 60.1 °F 84% 30.11 in 10.0 mi NNE 6.9 mph - N/A   Clear
3:53 AM 64.9 °F 59.0 °F 81% 30.12 in 10.0 mi NNE 8.1 mph - N/A   Clear
4:53 AM 66.0 °F 59.0 °F 78% 30.12 in 10.0 mi NNE 8.1 mph - N/A   Clear
5:53 AM 66.0 °F 59.0 °F 78% 30.13 in 10.0 mi NNE 8.1 mph - N/A   Partly Cloudy
6:53 AM 66.0 °F 59.0 °F 78% 30.16 in 10.0 mi NNE 9.2 mph - N/A   Clear
7:53 AM 68.0 °F 60.1 °F 76% 30.17 in 10.0 mi NNE 8.1 mph - N/A   Clear
8:53 AM 69.1 °F 59.0 °F 70% 30.19 in 10.0 mi NNE 11.5 mph - N/A   Clear
9:53 AM 71.1 °F 57.9 °F 63% 30.21 in 10.0 mi NNE 11.5 mph - N/A   Clear
10:53 AM 73.0 °F 57.9 °F 59% 30.21 in 10.0 mi North 11.5 mph - N/A   Clear
11:53 AM 73.9 °F 55.9 °F 53% 30.19 in 10.0 mi NNE 13.8 mph - N/A   Clear
12:53 PM 75.0 °F 57.9 °F 55% 30.17 in 10.0 mi NNE 8.1 mph - N/A   Clear
1:53 PM 73.0 °F 57.9 °F 59% 30.15 in 10.0 mi NNE 13.8 mph - N/A   Clear
2:53 PM 73.0 °F 57.9 °F 59% 30.14 in 10.0 mi NNE 12.7 mph - N/A   Clear
3:53 PM 73.0 °F 59.0 °F 61% 30.14 in 10.0 mi NNE 6.9 mph - N/A   Clear
4:53 PM 72.0 °F 59.0 °F 64% 30.16 in 10.0 mi NNE 5.8 mph - N/A   Clear
5:53 PM 69.1 °F 60.1 °F 73% 30.17 in 10.0 mi NNE 3.5 mph - N/A   Clear
6:53 PM 66.9 °F 61.0 °F 81% 30.18 in 10.0 mi Calm Calm - N/A   Clear
7:53 PM 66.0 °F 62.1 °F 87% 30.19 in 10.0 mi NNE 4.6 mph - N/A   Clear
8:53 PM 64.9 °F 61.0 °F 87% 30.20 in 10.0 mi NNE 3.5 mph - N/A   Clear
9:53 PM 64.9 °F 62.1 °F 90% 30.21 in 10.0 mi North 5.8 mph - N/A   Clear
10:53 PM 64.9 °F 61.0 °F 87% 30.22 in 10.0 mi North 4.6 mph - N/A   Clear
11:53 PM 64.9 °F 60.1 °F 84% 30.21 in 10.0 mi North 5.8 mph - N/A   Clear